IRIDIUM 26

Last updated on Wed Nov 29 2017 00:19:02 GMT+0000 (Coordinated Universal Time)

1 24903U 97043A 17332.55219992 .00000132 00000-0 39166-4 0 9994 2 24903 86.3983 186.0104 0002147 92.8295 267.3147 14.35288188 61540

Satellite not in orbit

IRIDIUM 26